Back to catalog

COSMOS 1275 DEB

AlivePO
NORAD 20087·DEBRIS·🇷🇺 Russia

Launched Jun 4, 1981 from Plesetsk Cosmodrome

Loading…

Next Passes (next 24 hours)

TLE

FreshSource: Space-Track

Epoch: Sep 14, 2026, 11:22 UTC

1 20087U 81053MJ  26257.47361138  .00000907  00000-0  81192-3 0  9999
2 20087  82.9863  69.9387 0102801 224.3559 164.2931 13.81030308866844

Track COSMOS 1275 DEB in real time with AllMySat

Download on the App Store